| time (UTC) | temp C | wind direction | speed KPH | gust KPH | rain 1hr cm | rain 24hr cm | rain mn cm | humidity % | barometer mb |
| 20260510071552 | 10 | 207 | 11.3 | 20.9 | 0.00 | 0.18 | 0.00 | 88 | 1004.4 |
| 20260510071038 | 10 | 252 | 12.9 | 24.1 | 0.00 | 0.18 | 0.00 | 89 | 1004.3 |
| 20260510070540 | 10 | 207 | 11.3 | 24.1 | 0.00 | 0.18 | 0.00 | 89 | 1004.3 |
| 20260510070052 | 10 | 197 | 11.3 | 22.5 | 0.00 | 0.18 | 0.00 | 89 | 1004.3 |
| 20260510065539 | 10 | 213 | 11.3 | 22.5 | 0.00 | 0.18 | 0.00 | 89 | 1004.2 |
| 20260510065038 | 10 | 217 | 14.5 | 22.5 | 0.00 | 0.18 | 0.00 | 88 | 1004.2 |
| 20260510064550 | 10 | 207 | 12.9 | 20.9 | 0.00 | 0.18 | 0.00 | 88 | 1004.2 |
| 20260510064038 | 10 | 211 | 12.9 | 22.5 | 0.00 | 0.18 | 0.00 | 89 | 1004.0 |
| 20260510063540 | 10 | 207 | 11.3 | 24.1 | 0.00 | 0.18 | 0.00 | 89 | 1003.9 |
| 20260510063050 | 10 | 191 | 12.9 | 24.1 | 0.00 | 0.18 | 0.00 | 89 | 1003.8 |
| 20260510062540 | 10 | 207 | 14.5 | 24.1 | 0.00 | 0.18 | 0.00 | 89 | 1003.8 |
| 20260510062038 | 10 | 185 | 16.1 | 24.1 | 0.00 | 0.18 | 0.00 | 89 | 1003.8 |
| 20260510061552 | 10 | 213 | 12.9 | 22.5 | 0.00 | 0.18 | 0.00 | 89 | 1003.7 |
| 20260510061039 | 10 | 225 | 16.1 | 25.7 | 0.00 | 0.18 | 0.00 | 89 | 1003.7 |
| 20260510060539 | 10 | 197 | 17.7 | 25.7 | 0.00 | 0.18 | 0.00 | 89 | 1003.7 |
| 20260510060048 | 10 | 224 | 14.5 | 19.3 | 0.00 | 0.18 | 0.00 | 89 | 1003.6 |
| 20260510055539 | 10 | 207 | 8.0 | 22.5 | 0.00 | 0.18 | 0.00 | 89 | 1003.7 |
| 20260510055039 | 11 | 211 | 11.3 | 22.5 | 0.00 | 0.18 | 0.00 | 89 | 1003.7 |
| 20260510054546 | 11 | 189 | 14.5 | 22.5 | 0.00 | 0.18 | 0.00 | 89 | 1003.6 |
| 20260510054039 | 11 | 192 | 14.5 | 22.5 | 0.00 | 0.18 | 0.00 | 88 | 1003.6 |
| 20260510053539 | 11 | 211 | 14.5 | 25.7 | 0.00 | 0.18 | 0.00 | 88 | 1003.6 |
| 20260510053059 | 11 | 202 | 14.5 | 25.7 | 0.00 | 0.18 | 0.00 | 88 | 1003.5 |
| 20260510052540 | 11 | 193 | 12.9 | 22.5 | 0.00 | 0.18 | 0.00 | 89 | 1003.5 |
| 20260510052040 | 11 | 239 | 4.8 | 14.5 | 0.00 | 0.18 | 0.00 | 88 | 1003.6 |
| 20260510051551 | 11 | 247 | 6.4 | 27.4 | 0.00 | 0.18 | 0.00 | 88 | 1003.5 |
| 20260510051039 | 11 | 290 | 6.4 | 27.4 | 0.00 | 0.18 | 0.00 | 88 | 1003.3 |
| 20260510050538 | 11 | 163 | 16.1 | 27.4 | 0.00 | 0.18 | 0.00 | 88 | 1003.1 |
| 20260510050050 | 11 | 207 | 14.5 | 24.1 | 0.00 | 0.18 | 0.00 | 88 | 1003.4 |
| 20260510045536 | 11 | 207 | 14.5 | 24.1 | 0.00 | 0.18 | 0.00 | 88 | 1003.2 |
| 20260510045121 | 11 | 192 | 16.1 | 24.1 | 0.00 | 0.18 | 0.00 | 88 | 1003.1 |
| 20260510044551 | 11 | 194 | 12.9 | 22.5 | 0.00 | 0.18 | 0.00 | 88 | 1003.0 |
| 20260510044036 | 11 | 217 | 12.9 | 20.9 | 0.00 | 0.18 | 0.00 | 88 | 1002.9 |
| 20260510043538 | 11 | 219 | 12.9 | 19.3 | 0.00 | 0.18 | 0.00 | 88 | 1002.8 |
| 20260510043100 | 11 | 207 | 12.9 | 19.3 | 0.00 | 0.18 | 0.00 | 88 | 1002.7 |
| 20260510042539 | 11 | 197 | 12.9 | 22.5 | 0.00 | 0.18 | 0.00 | 87 | 1002.4 |
| 20260510042044 | 11 | 211 | 12.9 | 24.1 | 0.00 | 0.18 | 0.00 | 87 | 1002.5 |
| 20260510041549 | 11 | 226 | 12.9 | 24.1 | 0.00 | 0.18 | 0.00 | 87 | 1002.4 |
| 20260510041039 | 11 | 216 | 14.5 | 24.1 | 0.00 | 0.18 | 0.00 | 87 | 1002.3 |
| 20260510040538 | 11 | 202 | 12.9 | 20.9 | 0.00 | 0.18 | 0.00 | 87 | 1002.3 |
| 20260510040046 | 11 | 202 | 12.9 | 22.5 | 0.00 | 0.18 | 0.00 | 87 | 1002.1 |
| 20260510035539 | 11 | 192 | 14.5 | 25.7 | 0.00 | 0.18 | 0.18 | 86 | 1002.0 |
| 20260510035039 | 12 | 213 | 14.5 | 25.7 | 0.00 | 0.18 | 0.18 | 86 | 1002.3 |
| 20260510034544 | 12 | 207 | 14.5 | 25.7 | 0.00 | 0.18 | 0.18 | 86 | 1002.3 |
| 20260510034038 | 12 | 228 | 14.5 | 25.7 | 0.00 | 0.18 | 0.18 | 86 | 1002.4 |
| 20260510033537 | 12 | 207 | 16.1 | 25.7 | 0.00 | 0.18 | 0.18 | 86 | 1002.3 |
| 20260510033057 | 12 | 217 | 14.5 | 24.1 | 0.00 | 0.18 | 0.18 | 85 | 1002.4 |
| 20260510032538 | 12 | 213 | 16.1 | 25.7 | 0.05 | 0.18 | 0.18 | 85 | 1002.3 |
| 20260510032039 | 12 | 202 | 14.5 | 30.6 | 0.05 | 0.18 | 0.18 | 85 | 1002.5 |
| 20260510031549 | 12 | 191 | 16.1 | 30.6 | 0.08 | 0.18 | 0.18 | 85 | 1002.5 |
| 20260510031036 | 12 | 213 | 14.5 | 32.2 | 0.10 | 0.18 | 0.18 | 85 | 1002.5 |
| 20260510030540 | 12 | 184 | 17.7 | 32.2 | 0.18 | 0.18 | 0.18 | 85 | 1002.4 |
| 20260510030047 | 12 | 171 | 19.3 | 32.2 | 0.18 | 0.18 | 0.18 | 85 | 1002.3 |
| 20260510025537 | 12 | 182 | 16.1 | 30.6 | 0.18 | 0.18 | 0.18 | 85 | 1002.3 |
| 20260510025038 | 12 | 190 | 16.1 | 29.0 | 0.18 | 0.18 | 0.18 | 84 | 1002.3 |
| 20260510024550 | 12 | 202 | 17.7 | 27.4 | 0.18 | 0.18 | 0.18 | 83 | 1002.2 |
| 20260510024039 | 12 | 186 | 17.7 | 27.4 | 0.18 | 0.18 | 0.18 | 82 | 1002.3 |
| 20260510023536 | 12 | 197 | 17.7 | 27.4 | 0.18 | 0.18 | 0.18 | 80 | 1002.3 |
| 20260510023048 | 12 | 187 | 16.1 | 27.4 | 0.15 | 0.15 | 0.15 | 78 | 1002.4 |
| 20260510022537 | 13 | 211 | 16.1 | 27.4 | 0.13 | 0.13 | 0.13 | 77 | 1002.3 |
| 20260510022038 | 13 | 192 | 16.1 | 27.4 | 0.13 | 0.13 | 0.13 | 76 | 1002.1 |
| 20260510021549 | 13 | 156 | 14.5 | 25.7 | 0.10 | 0.10 | 0.10 | 74 | 1001.8 |
| 20260510021037 | 13 | 169 | 17.7 | 27.4 | 0.05 | 0.05 | 0.05 | 72 | 1001.7 |
| 20260510020538 | 14 | 166 | 17.7 | 27.4 | 0.00 | 0.00 | 0.00 | 69 | 1001.6 |
| 20260510020050 | 14 | 153 | 17.7 | 27.4 | 0.00 | 0.00 | 0.00 | 68 | 1001.6 |
| 20260510015537 | 14 | 167 | 20.9 | 27.4 | 0.00 | 0.00 | 0.00 | 67 | 1001.5 |
| 20260510015037 | 14 | 163 | 17.7 | 32.2 | 0.00 | 0.00 | 0.00 | 67 | 1001.4 |
| 20260510014550 | 15 | 161 | 19.3 | 32.2 | 0.00 | 0.00 | 0.00 | 66 | 1001.5 |
| 20260510014037 | 15 | 144 | 16.1 | 27.4 | 0.00 | 0.00 | 0.00 | 66 | 1001.6 |
| 20260510013537 | 15 | 146 | 20.9 | 29.0 | 0.00 | 0.00 | 0.00 | 65 | 1001.7 |
| 20260510013053 | 15 | 169 | 17.7 | 29.0 | 0.00 | 0.00 | 0.00 | 65 | 1001.9 |
| 20260510012539 | 15 | 140 | 16.1 | 25.7 | 0.00 | 0.00 | 0.00 | 64 | 1001.8 |
| 20260510012036 | 15 | 168 | 12.9 | 25.7 | 0.00 | 0.00 | 0.00 | 63 | 1001.9 |
| 20260510011550 | 15 | 157 | 16.1 | 25.7 | 0.00 | 0.00 | 0.00 | 61 | 1001.8 |
| 20260510011036 | 15 | 141 | 14.5 | 24.1 | 0.00 | 0.00 | 0.00 | 61 | 1001.8 |
| 20260510010535 | 15 | 156 | 16.1 | 22.5 | 0.00 | 0.00 | 0.00 | 60 | 1001.8 |
| 20260510010050 | 15 | 165 | 14.5 | 24.1 | 0.00 | 0.00 | 0.00 | 60 | 1001.9 |
| 20260510005536 | 15 | 163 | 16.1 | 24.1 | 0.00 | 0.00 | 0.00 | 59 | 1001.9 |
| 20260510005037 | 15 | 155 | 12.9 | 20.9 | 0.00 | 0.00 | 0.00 | 58 | 1001.9 |
| 20260510004553 | 15 | 153 | 11.3 | 20.9 | 0.00 | 0.00 | 0.00 | 57 | 1001.9 |
| 20260510004036 | 15 | 190 | 14.5 | 20.9 | 0.00 | 0.00 | 0.00 | 56 | 1001.9 |
| 20260510003535 | 15 | 154 | 14.5 | 22.5 | 0.00 | 0.00 | 0.00 | 56 | 1001.9 |
| 20260510003049 | 15 | 165 | 12.9 | 22.5 | 0.00 | 0.00 | 0.00 | 56 | 1001.9 |
| 20260510002541 | 16 | 164 | 14.5 | 27.4 | 0.00 | 0.00 | 0.00 | 56 | 1002.0 |
| 20260510002037 | 16 | 159 | 17.7 | 29.0 | 0.00 | 0.00 | 0.00 | 56 | 1002.1 |
| 20260510001549 | 16 | 157 | 14.5 | 29.0 | 0.00 | 0.00 | 0.00 | 57 | 1002.1 |
| 20260510001036 | 16 | 175 | 17.7 | 27.4 | 0.00 | 0.00 | 0.00 | 57 | 1002.0 |
| 20260510000539 | 16 | 148 | 19.3 | 27.4 | 0.00 | 0.00 | 0.00 | 57 | 1002.1 |
| 20260510000057 | 16 | 164 | 17.7 | 25.7 | 0.00 | 0.00 | 0.00 | 58 | 1002.2 |
| 20260509235536 | 16 | 163 | 17.7 | 27.4 | 0.00 | 0.00 | 0.00 | 58 | 1002.3 |
| 20260509235037 | 16 | 184 | 17.7 | 27.4 | 0.00 | 0.00 | 0.00 | 58 | 1002.4 |
| 20260509234545 | 16 | 173 | 14.5 | 27.4 | 0.00 | 0.00 | 0.00 | 58 | 1002.6 |
| 20260509234035 | 16 | 169 | 19.3 | 27.4 | 0.00 | 0.00 | 0.00 | 58 | 1002.6 |
| 20260509233534 | 16 | 148 | 16.1 | 30.6 | 0.00 | 0.00 | 0.00 | 58 | 1002.7 |
| 20260509233045 | 16 | 156 | 17.7 | 30.6 | 0.00 | 0.00 | 0.00 | 58 | 1002.8 |
| 20260509232535 | 16 | 171 | 14.5 | 30.6 | 0.00 | 0.00 | 0.00 | 58 | 1002.8 |
| 20260509232035 | 16 | 186 | 16.1 | 32.2 | 0.00 | 0.00 | 0.00 | 57 | 1002.8 |
| 20260509231545 | 16 | 177 | 19.3 | 33.8 | 0.00 | 0.00 | 0.00 | 57 | 1002.9 |
| 20260509231035 | 16 | 177 | 16.1 | 37.0 | 0.00 | 0.00 | 0.00 | 56 | 1002.9 |
| 20260509230534 | 16 | 169 | 22.5 | 37.0 | 0.00 | 0.00 | 0.00 | 56 | 1002.8 |
| 20260509230044 | 16 | 176 | 24.1 | 37.0 | 0.00 | 0.00 | 0.00 | 55 | 1002.8 |
| 20260509225537 | 17 | 182 | 20.9 | 32.2 | 0.00 | 0.00 | 0.00 | 54 | 1002.8 |
| 20260509225036 | 17 | 177 | 22.5 | 30.6 | 0.00 | 0.00 | 0.00 | 53 | 1002.6 |
| 20260509224549 | 17 | 187 | 17.7 | 25.7 | 0.00 | 0.00 | 0.00 | 50 | 1002.6 |
| 20260509224038 | 17 | 202 | 16.1 | 25.7 | 0.00 | 0.00 | 0.00 | 47 | 1002.6 |
| 20260509223536 | 17 | 207 | 14.5 | 29.0 | 0.00 | 0.00 | 0.00 | 46 | 1002.6 |
| 20260509223047 | 17 | 167 | 14.5 | 29.0 | 0.00 | 0.00 | 0.00 | 46 | 1002.6 |
| 20260509222537 | 17 | 178 | 19.3 | 30.6 | 0.00 | 0.00 | 0.00 | 46 | 1002.5 |
| 20260509222037 | 17 | 188 | 12.9 | 32.2 | 0.00 | 0.00 | 0.00 | 45 | 1002.4 |
| 20260509221546 | 17 | 168 | 16.1 | 35.4 | 0.00 | 0.00 | 0.00 | 45 | 1002.5 |
| 20260509221036 | 17 | 175 | 22.5 | 35.4 | 0.00 | 0.00 | 0.00 | 46 | 1002.5 |
| 20260509220537 | 17 | 180 | 25.7 | 35.4 | 0.00 | 0.00 | 0.00 | 46 | 1002.5 |
| 20260509220049 | 17 | 190 | 20.9 | 30.6 | 0.00 | 0.00 | 0.00 | 45 | 1002.3 |
| 20260509215537 | 17 | 161 | 12.9 | 29.0 | 0.00 | 0.00 | 0.00 | 43 | 1002.3 |
| 20260509215035 | 17 | 202 | 17.7 | 33.8 | 0.00 | 0.00 | 0.00 | 42 | 1002.3 |
| 20260509214559 | 17 | 187 | 19.3 | 37.0 | 0.00 | 0.00 | 0.00 | 41 | 1002.3 |
| 20260509214035 | 17 | 168 | 22.5 | 37.0 | 0.00 | 0.00 | 0.00 | 41 | 1002.6 |
| 20260509213535 | 18 | 207 | 19.3 | 33.8 | 0.00 | 0.00 | 0.00 | 41 | 1002.7 |
| 20260509213048 | 18 | 163 | 25.7 | 33.8 | 0.00 | 0.00 | 0.00 | 41 | 1002.6 |
| 20260509212537 | 18 | 170 | 19.3 | 38.6 | 0.00 | 0.00 | 0.00 | 37 | 1002.6 |
| 20260509212037 | 17 | 179 | 17.7 | 38.6 | 0.00 | 0.00 | 0.00 | 42 | 1002.6 |
| 20260509211547 | 18 | 169 | 17.7 | 30.6 | 0.00 | 0.00 | 0.00 | 42 | 1002.7 |
| 20260509211034 | 18 | 190 | 19.3 | 37.0 | 0.00 | 0.00 | 0.00 | 42 | 1002.8 |
| 20260509210535 | 18 | 166 | 20.9 | 37.0 | 0.00 | 0.00 | 0.00 | 42 | 1002.7 |
| 20260509210049 | 18 | 167 | 20.9 | 35.4 | 0.00 | 0.00 | 0.00 | 41 | 1002.7 |
| 20260509205536 | 18 | 207 | 20.9 | 32.2 | 0.00 | 0.00 | 0.00 | 40 | 1002.7 |
| 20260509205037 | 18 | 211 | 20.9 | 32.2 | 0.00 | 0.00 | 0.00 | 39 | 1002.8 |
| 20260509204549 | 18 | 213 | 19.3 | 30.6 | 0.00 | 0.00 | 0.00 | 40 | 1002.8 |
| 20260509204037 | 18 | 161 | 19.3 | 37.0 | 0.00 | 0.00 | 0.00 | 38 | 1002.8 |
| 20260509203536 | 18 | 151 | 22.5 | 37.0 | 0.00 | 0.00 | 0.00 | 36 | 1002.8 |
| 20260509203059 | 18 | 165 | 20.9 | 30.6 | 0.00 | 0.00 | 0.00 | 37 | 1002.8 |
| 20260509202537 | 18 | 207 | 22.5 | 32.2 | 0.00 | 0.00 | 0.00 | 34 | 1002.9 |
| 20260509202037 | 18 | 159 | 20.9 | 32.2 | 0.00 | 0.00 | 0.00 | 34 | 1002.8 |
| 20260509201553 | 18 | 125 | 22.5 | 37.0 | 0.00 | 0.00 | 0.00 | 35 | 1002.8 |
| 20260509201036 | 18 | 159 | 27.4 | 37.0 | 0.00 | 0.00 | 0.00 | 33 | 1002.9 |
| 20260509200536 | 18 | 147 | 22.5 | 37.0 | 0.00 | 0.00 | 0.00 | 33 | 1002.8 |
| 20260509200047 | 18 | 164 | 22.5 | 40.2 | 0.00 | 0.00 | 0.00 | 31 | 1003.0 |
| 20260509195536 | 18 | 159 | 22.5 | 40.2 | 0.00 | 0.00 | 0.00 | 30 | 1003.0 |
| 20260509195037 | 18 | 202 | 20.9 | 40.2 | 0.00 | 0.00 | 0.00 | 31 | 1002.9 |
| 20260509194548 | 18 | 179 | 22.5 | 37.0 | 0.00 | 0.00 | 0.00 | 32 | 1002.9 |
| 20260509194037 | 18 | 188 | 19.3 | 40.2 | 0.00 | 0.00 | 0.00 | 31 | 1003.1 |
| 20260509193536 | 18 | 167 | 22.5 | 40.2 | 0.00 | 0.00 | 0.00 | 31 | 1003.0 |
| 20260509193055 | 18 | 197 | 24.1 | 40.2 | 0.00 | 0.00 | 0.00 | 32 | 1003.1 |
| 20260509192537 | 18 | 182 | 22.5 | 35.4 | 0.00 | 0.00 | 0.00 | 32 | 1003.3 |
| 20260509192036 | 17 | 142 | 20.9 | 41.8 | 0.00 | 0.00 | 0.00 | 31 | 1003.4 |
| 20260509191557 | 17 | 163 | 27.4 | 41.8 | 0.00 | 0.00 | 0.00 | 32 | 1003.5 |
| 20260509191036 | 17 | 167 | 25.7 | 40.2 | 0.00 | 0.00 | 0.00 | 31 | 1003.3 |
| 20260509190541 | 17 | 132 | 25.7 | 38.6 | 0.00 | 0.00 | 0.00 | 30 | 1003.4 |
| 20260509190050 | 17 | 178 | 19.3 | 38.6 | 0.00 | 0.00 | 0.00 | 31 | 1003.5 |
| 20260509185538 | 17 | 155 | 22.5 | 38.6 | 0.00 | 0.00 | 0.00 | 31 | 1003.7 |
| 20260509185038 | 17 | 175 | 24.1 | 38.6 | 0.00 | 0.00 | 0.00 | 30 | 1003.8 |
| 20260509184557 | 17 | 138 | 27.4 | 38.6 | 0.00 | 0.00 | 0.00 | 30 | 1003.8 |
| 20260509184038 | 17 | 153 | 24.1 | 37.0 | 0.00 | 0.00 | 0.00 | 31 | 1003.8 |
| 20260509183537 | 17 | 186 | 19.3 | 37.0 | 0.00 | 0.00 | 0.00 | 31 | 1004.0 |
| 20260509183059 | 17 | 146 | 22.5 | 37.0 | 0.00 | 0.00 | 0.00 | 30 | 1004.2 |
| 20260509182539 | 17 | 151 | 25.7 | 37.0 | 0.00 | 0.00 | 0.00 | 31 | 1004.3 |
| 20260509182037 | 17 | 156 | 17.7 | 32.2 | 0.00 | 0.00 | 0.00 | 31 | 1004.4 |
| 20260509181546 | 17 | 168 | 22.5 | 33.8 | 0.00 | 0.00 | 0.00 | 31 | 1004.5 |
| 20260509181038 | 17 | 173 | 20.9 | 33.8 | 0.00 | 0.00 | 0.00 | 30 | 1004.6 |
| 20260509180538 | 17 | 180 | 17.7 | 30.6 | 0.00 | 0.00 | 0.00 | 31 | 1004.6 |
| 20260509180045 | 17 | 192 | 17.7 | 33.8 | 0.00 | 0.00 | 0.00 | 32 | 1004.4 |
| 20260509175538 | 17 | 140 | 19.3 | 41.8 | 0.00 | 0.00 | 0.00 | 31 | 1004.5 |
| 20260509175038 | 17 | 157 | 29.0 | 41.8 | 0.00 | 0.00 | 0.00 | 30 | 1004.7 |
| 20260509174607 | 17 | 175 | 19.3 | 45.1 | 0.00 | 0.00 | 0.00 | 31 | 1004.6 |
| 20260509174037 | 17 | 127 | 25.7 | 45.1 | 0.00 | 0.00 | 0.00 | 30 | 1004.9 |
| 20260509173537 | 17 | 153 | 24.1 | 45.1 | 0.00 | 0.00 | 0.00 | 33 | 1004.8 |
| 20260509173051 | 17 | 165 | 17.7 | 41.8 | 0.00 | 0.00 | 0.00 | 33 | 1004.8 |
| 20260509172538 | 16 | 168 | 24.1 | 41.8 | 0.00 | 0.00 | 0.00 | 32 | 1004.9 |
| 20260509172037 | 16 | 146 | 25.7 | 41.8 | 0.00 | 0.00 | 0.00 | 32 | 1005.0 |
| 20260509171547 | 16 | 168 | 27.4 | 41.8 | 0.00 | 0.00 | 0.00 | 32 | 1004.8 |
| 20260509171037 | 16 | 149 | 19.3 | 37.0 | 0.00 | 0.00 | 0.00 | 34 | 1004.9 |
| 20260509170538 | 17 | 154 | 25.7 | 35.4 | 0.00 | 0.00 | 0.00 | 33 | 1005.1 |
| 20260509170045 | 17 | 159 | 19.3 | 35.4 | 0.00 | 0.00 | 0.00 | 32 | 1005.1 |
| 20260509165536 | 17 | 161 | 14.5 | 35.4 | 0.00 | 0.00 | 0.00 | 32 | 1005.4 |
| 20260509165041 | 16 | 160 | 20.9 | 37.0 | 0.00 | 0.00 | 0.00 | 31 | 1005.7 |
| 20260509164546 | 16 | 156 | 19.3 | 37.0 | 0.00 | 0.00 | 0.00 | 32 | 1005.6 |
| 20260509164035 | 16 | 186 | 20.9 | 33.8 | 0.00 | 0.00 | 0.00 | 32 | 1005.7 |
| 20260509163537 | 16 | 184 | 20.9 | 33.8 | 0.00 | 0.00 | 0.00 | 32 | 1005.8 |
| 20260509163048 | 16 | 167 | 27.4 | 33.8 | 0.00 | 0.00 | 0.00 | 32 | 1006.0 |
| 20260509162535 | 16 | 153 | 19.3 | 32.2 | 0.00 | 0.00 | 0.00 | 34 | 1006.1 |
| 20260509162037 | 16 | 197 | 19.3 | 37.0 | 0.00 | 0.00 | 0.00 | 34 | 1006.1 |
| 20260509161549 | 16 | 188 | 19.3 | 37.0 | 0.00 | 0.00 | 0.00 | 32 | 1006.2 |
| 20260509161037 | 16 | 197 | 19.3 | 37.0 | 0.00 | 0.00 | 0.00 | 34 | 1006.4 |
| 20260509160538 | 16 | 156 | 17.7 | 38.6 | 0.00 | 0.00 | 0.00 | 34 | 1006.2 |
| 20260509160051 | 15 | 150 | 24.1 | 38.6 | 0.00 | 0.00 | 0.00 | 34 | 1006.2 |
| 20260509155538 | 15 | 152 | 25.7 | 35.4 | 0.00 | 0.00 | 0.00 | 34 | 1006.5 |
| 20260509155036 | 15 | 192 | 19.3 | 35.4 | 0.00 | 0.00 | 0.00 | 34 | 1006.7 |
| 20260509154549 | 15 | 178 | 25.7 | 37.0 | 0.00 | 0.00 | 0.00 | 36 | 1006.6 |
| 20260509154038 | 15 | 185 | 24.1 | 38.6 | 0.00 | 0.00 | 0.00 | 36 | 1006.7 |
| 20260509153538 | 15 | 202 | 20.9 | 38.6 | 0.00 | 0.00 | 0.00 | 36 | 1006.8 |
| 20260509153055 | 15 | 153 | 24.1 | 32.2 | 0.00 | 0.00 | 0.00 | 36 | 1006.8 |
| 20260509152541 | 15 | 163 | 16.1 | 33.8 | 0.00 | 0.00 | 0.00 | 39 | 1007.0 |
| 20260509152038 | 15 | 222 | 16.1 | 33.8 | 0.00 | 0.00 | 0.00 | 40 | 1007.1 |
| 20260509151544 | 15 | 167 | 19.3 | 33.8 | 0.00 | 0.00 | 0.00 | 41 | 1007.3 |
| 20260509151037 | 15 | 179 | 19.3 | 33.8 | 0.00 | 0.00 | 0.00 | 42 | 1007.5 |
| 20260509150535 | 15 | 222 | 20.9 | 33.8 | 0.00 | 0.00 | 0.00 | 42 | 1007.7 |
| 20260509150047 | 15 | 186 | 11.3 | 32.2 | 0.00 | 0.00 | 0.00 | 43 | 1007.6 |
| 20260509145538 | 14 | 219 | 20.9 | 30.6 | 0.00 | 0.00 | 0.00 | 43 | 1007.8 |
| 20260509145035 | 14 | 169 | 19.3 | 30.6 | 0.00 | 0.00 | 0.00 | 43 | 1007.7 |
| 20260509144547 | 14 | 159 | 19.3 | 30.6 | 0.00 | 0.00 | 0.00 | 46 | 1007.8 |
| 20260509144037 | 13 | 167 | 17.7 | 29.0 | 0.00 | 0.00 | 0.00 | 46 | 1007.8 |
| 20260509143537 | 13 | 190 | 16.1 | 29.0 | 0.00 | 0.00 | 0.00 | 48 | 1007.9 |
| 20260509143049 | 13 | 164 | 19.3 | 29.0 | 0.00 | 0.00 | 0.00 | 48 | 1007.8 |
| 20260509142537 | 12 | 207 | 12.9 | 25.7 | 0.00 | 0.00 | 0.00 | 51 | 1007.9 |
| 20260509142035 | 12 | 211 | 12.9 | 20.9 | 0.00 | 0.00 | 0.00 | 53 | 1008.1 |
| 20260509141547 | 12 | 131 | 8.0 | 16.1 | 0.00 | 0.00 | 0.00 | 54 | 1008.1 |
| 20260509141038 | 12 | 81 | 6.4 | 12.9 | 0.00 | 0.00 | 0.00 | 53 | 1008.1 |
| 20260509140537 | 11 | 158 | 3.2 | 24.1 | 0.00 | 0.00 | 0.00 | 53 | 1008.1 |
| 20260509140055 | 11 | 86 | 12.9 | 24.1 | 0.00 | 0.00 | 0.00 | 53 | 1008.1 |
| 20260509135541 | 11 | 215 | 4.8 | 16.1 | 0.00 | 0.00 | 0.00 | 54 | 1008.3 |
| 20260509135038 | 10 | 163 | 8.0 | 19.3 | 0.00 | 0.00 | 0.00 | 54 | 1008.4 |
| 20260509134551 | 10 | 144 | 8.0 | 19.3 | 0.00 | 0.00 | 0.00 | 55 | 1008.3 |
| 20260509134037 | 10 | 197 | 4.8 | 14.5 | 0.00 | 0.00 | 0.00 | 55 | 1008.5 |
| 20260509133537 | 10 | 186 | 3.2 | 12.9 | 0.00 | 0.00 | 0.00 | 56 | 1008.5 |
| 20260509133046 | 10 | 128 | 6.4 | 24.1 | 0.00 | 0.00 | 0.00 | 56 | 1008.6 |
| 20260509132538 | 9 | 190 | 8.0 | 24.1 | 0.00 | 0.00 | 0.00 | 56 | 1008.6 |
| 20260509132040 | 9 | 132 | 4.8 | 8.0 | 0.00 | 0.00 | 0.00 | 56 | 1008.7 |
| 20260509131550 | 9 | 140 | 3.2 | 11.3 | 0.00 | 0.00 | 0.00 | 58 | 1008.7 |
| 20260509131037 | 8 | 138 | 3.2 | 11.3 | 0.00 | 0.00 | 0.00 | 57 | 1008.7 |
| 20260509130538 | 8 | 143 | 4.8 | 11.3 | 0.00 | 0.00 | 0.00 | 57 | 1008.8 |
| 20260509130100 | 8 | 145 | 3.2 | 11.3 | 0.00 | 0.00 | 0.00 | 57 | 1008.8 |
| 20260509125538 | 8 | 137 | 1.6 | 8.0 | 0.00 | 0.00 | 0.00 | 59 | 1008.9 |
| 20260509125038 | 8 | 138 | 4.8 | 16.1 | 0.00 | 0.00 | 0.00 | 58 | 1008.9 |
| 20260509124552 | 8 | 140 | 4.8 | 16.1 | 0.00 | 0.00 | 0.00 | 59 | 1009.0 |
| 20260509124038 | 8 | 157 | 6.4 | 12.9 | 0.00 | 0.00 | 0.00 | 59 | 1008.9 |
| 20260509123537 | 7 | 155 | 6.4 | 14.5 | 0.00 | 0.00 | 0.00 | 60 | 1009.0 |
| 20260509123051 | 7 | 127 | 6.4 | 19.3 | 0.00 | 0.00 | 0.00 | 62 | 1009.0 |
| 20260509122538 | 7 | 170 | 8.0 | 19.3 | 0.00 | 0.00 | 0.00 | 62 | 1009.1 |
| 20260509122037 | 7 | 163 | 3.2 | 11.3 | 0.00 | 0.00 | 0.00 | 64 | 1009.0 |
| 20260509121547 | 6 | 112 | 4.8 | 11.3 | 0.00 | 0.00 | 0.00 | 65 | 1009.0 |
| 20260509121038 | 6 | 140 | 4.8 | 11.3 | 0.00 | 0.00 | 0.00 | 66 | 1009.0 |
| 20260509120537 | 6 | 147 | 4.8 | 11.3 | 0.00 | 0.00 | 0.00 | 66 | 1009.0 |
| 20260509120049 | 6 | 107 | 4.8 | 9.7 | 0.00 | 0.00 | 0.00 | 67 | 1008.9 |
| 20260509115537 | 6 | 124 | 6.4 | 11.3 | 0.00 | 0.00 | 0.00 | 68 | 1009.0 |
| 20260509115038 | 6 | 125 | 4.8 | 11.3 | 0.00 | 0.00 | 0.00 | 68 | 1009.0 |
| 20260509114557 | 5 | 137 | 4.8 | 11.3 | 0.00 | 0.00 | 0.00 | 68 | 1009.0 |
| 20260509114038 | 5 | 149 | 4.8 | 9.7 | 0.00 | 0.00 | 0.00 | 70 | 1009.0 |
| 20260509113537 | 5 | 121 | 4.8 | 11.3 | 0.00 | 0.00 | 0.00 | 70 | 1008.9 |
| 20260509113055 | 5 | 99 | 6.4 | 11.3 | 0.00 | 0.00 | 0.00 | 70 | 1009.0 |
| 20260509112537 | 5 | 96 | 6.4 | 12.9 | 0.00 | 0.00 | 0.00 | 71 | 1008.9 |
| 20260509112037 | 5 | 92 | 6.4 | 12.9 | 0.00 | 0.00 | 0.00 | 71 | 1008.9 |
| 20260509111548 | 5 | 90 | 4.8 | 11.3 | 0.00 | 0.00 | 0.00 | 71 | 1008.9 |
| 20260509111037 | 5 | 107 | 4.8 | 11.3 | 0.00 | 0.00 | 0.00 | 72 | 1008.9 |
| 20260509110537 | 5 | 130 | 4.8 | 11.3 | 0.00 | 0.00 | 0.00 | 72 | 1008.7 |
| 20260509110045 | 4 | 133 | 6.4 | 11.3 | 0.00 | 0.00 | 0.00 | 73 | 1008.8 |
| 20260509105538 | 4 | 115 | 3.2 | 12.9 | 0.00 | 0.00 | 0.00 | 73 | 1008.8 |
| 20260509105036 | 4 | 132 | 4.8 | 12.9 | 0.00 | 0.00 | 0.00 | 74 | 1008.8 |
| 20260509104547 | 4 | 103 | 8.0 | 12.9 | 0.00 | 0.00 | 0.00 | 74 | 1008.7 |
| 20260509104037 | 4 | 134 | 6.4 | 11.3 | 0.00 | 0.00 | 0.00 | 75 | 1008.7 |
| 20260509103537 | 4 | 106 | 4.8 | 12.9 | 0.00 | 0.00 | 0.00 | 75 | 1008.7 |
| 20260509103059 | 4 | 109 | 8.0 | 12.9 | 0.00 | 0.00 | 0.00 | 75 | 1008.6 |
| 20260509102535 | 4 | 121 | 8.0 | 11.3 | 0.00 | 0.00 | 0.00 | 75 | 1008.6 |
| 20260509102038 | 4 | 122 | 8.0 | 12.9 | 0.00 | 0.00 | 0.00 | 75 | 1008.7 |
| 20260509101600 | 4 | 119 | 6.4 | 12.9 | 0.00 | 0.00 | 0.00 | 75 | 1008.6 |
| 20260509101036 | 4 | 107 | 6.4 | 11.3 | 0.00 | 0.00 | 0.00 | 75 | 1008.6 |
| 20260509100538 | 4 | 122 | 6.4 | 11.3 | 0.00 | 0.00 | 0.00 | 75 | 1008.6 |
| 20260509100047 | 4 | 128 | 6.4 | 11.3 | 0.00 | 0.00 | 0.00 | 75 | 1008.6 |
| 20260509095535 | 4 | 124 | 8.0 | 11.3 | 0.00 | 0.00 | 0.00 | 75 | 1008.5 |
| 20260509095036 | 4 | 132 | 4.8 | 11.3 | 0.00 | 0.00 | 0.00 | 75 | 1008.4 |
| 20260509094602 | 4 | 115 | 4.8 | 11.3 | 0.00 | 0.00 | 0.00 | 74 | 1008.5 |
| 20260509094039 | 4 | 121 | 4.8 | 9.7 | 0.00 | 0.00 | 0.00 | 74 | 1008.5 |
| 20260509093536 | 4 | 111 | 4.8 | 11.3 | 0.00 | 0.00 | 0.00 | 74 | 1008.5 |
| 20260509093043 | 4 | 115 | 4.8 | 11.3 | 0.00 | 0.00 | 0.00 | 74 | 1008.5 |
| 20260509092535 | 4 | 106 | 6.4 | 11.3 | 0.00 | 0.00 | 0.00 | 74 | 1008.4 |
| 20260509092037 | 4 | 106 | 4.8 | 9.7 | 0.00 | 0.00 | 0.00 | 74 | 1008.5 |
| 20260509091548 | 4 | 119 | 4.8 | 9.7 | 0.00 | 0.00 | 0.00 | 73 | 1008.6 |
| 20260509091037 | 4 | 119 | 4.8 | 9.7 | 0.00 | 0.00 | 0.00 | 73 | 1008.5 |
| 20260509090538 | 4 | 121 | 3.2 | 6.4 | 0.00 | 0.00 | 0.00 | 73 | 1008.3 |
| 20260509090059 | 4 | 121 | 3.2 | 6.4 | 0.00 | 0.00 | 0.00 | 73 | 1008.5 |
| 20260509085535 | 4 | 122 | 3.2 | 9.7 | 0.00 | 0.00 | 0.00 | 73 | 1008.5 |
| 20260509085037 | 5 | 119 | 4.8 | 9.7 | 0.00 | 0.00 | 0.00 | 73 | 1008.5 |
| 20260509084554 | 5 | 134 | 3.2 | 8.0 | 0.00 | 0.00 | 0.00 | 73 | 1008.5 |
| 20260509084035 | 5 | 136 | 4.8 | 8.0 | 0.00 | 0.00 | 0.00 | 72 | 1008.4 |
| 20260509083536 | 5 | 134 | 3.2 | 8.0 | 0.00 | 0.00 | 0.00 | 72 | 1008.3 |
| 20260509083057 | 5 | 134 | 4.8 | 8.0 | 0.00 | 0.00 | 0.00 | 72 | 1008.5 |
| 20260509082537 | 5 | 130 | 4.8 | 6.4 | 0.00 | 0.00 | 0.00 | 72 | 1008.5 |
| 20260509082038 | 5 | 136 | 3.2 | 6.4 | 0.00 | 0.00 | 0.00 | 72 | 1008.5 |
| 20260509081550 | 5 | 136 | 3.2 | 6.4 | 0.00 | 0.00 | 0.00 | 72 | 1008.5 |
| 20260509081038 | 5 | 148 | 3.2 | 6.4 | 0.00 | 0.00 | 0.00 | 72 | 1008.6 |
| 20260509080536 | 5 | 155 | 3.2 | 8.0 | 0.00 | 0.00 | 0.00 | 72 | 1008.6 |
| 20260509080053 | 5 | 157 | 3.2 | 8.0 | 0.00 | 0.00 | 0.00 | 72 | 1008.6 |
| 20260509075537 | 5 | 159 | 4.8 | 8.0 | 0.00 | 0.00 | 0.00 | 71 | 1008.6 |
| 20260509075037 | 5 | 151 | 3.2 | 8.0 | 0.00 | 0.00 | 0.00 | 71 | 1008.5 |
| 20260509074553 | 5 | 156 | 3.2 | 8.0 | 0.00 | 0.00 | 0.00 | 71 | 1008.6 |
| 20260509074038 | 5 | 145 | 4.8 | 8.0 | 0.00 | 0.00 | 0.00 | 71 | 1008.6 |
| 20260509073539 | 5 | 138 | 3.2 | 6.4 | 0.00 | 0.00 | 0.00 | 71 | 1008.5 |
| 20260509073052 | 5 | 138 | 3.2 | 6.4 | 0.00 | 0.00 | 0.00 | 71 | 1008.6 |
| 20260509072539 | 5 | 138 | 3.2 | 8.0 | 0.00 | 0.00 | 0.00 | 71 | 1008.5 |
| 20260509072038 | 5 | 144 | 3.2 | 11.3 | 0.00 | 0.00 | 0.00 | 71 | 1008.6 |